Terug naar catalogus

SL-8 DEB

ActiefLEO
NORAD 8829·DEBRIS·🇷🇺 Russia

Gelanceerd Sep 11, 1974 vanaf Plesetsk Cosmodrome

Loading…

Volgende Passages (komende 24 uur)

TLE

VersSource: Space-Track

Epoch: Sep 14, 2026, 11:22 UTC

1 08829U 74071D   26257.47421490  .00001832  00000-0  31107-3 0  9998
2 08829  74.0544  66.6519 0013309 190.3722 169.7177 14.69902999826547

Volg SL-8 DEB in realtime met AllMySat

Download on the App Store